This is the latest recevied weather packets stored in our database for station/object W2EH. If no packets are shown the sender has not sent any weather packets the latest 10 day(s).
| Time | Temp. | Humidity | Pressure | Rain* | Wind** | Luminosity | Snow |
|---|---|---|---|---|---|---|---|
| 1777477772 | 25.56° C | 88% | 1012 hPa | 0 mm | - | 115 W/m² | - |
| 1777477468 | 25.56° C | 89% | 1012 hPa | 0 mm | - | 106 W/m² | - |
| 1777477165 | 25.56° C | 90% | 1011.8 hPa | 0 mm | - | 117 W/m² | - |
| 1777476862 | 25° C | 91% | 1011.8 hPa | 0 mm | - | 108 W/m² | - |
| 1777476560 | 25° C | 92% | 1011.7 hPa | 0 mm | - | 110 W/m² | - |
| 1777476256 | 25° C | 92% | 1012 hPa | 0 mm | - | 104 W/m² | - |
| 1777475951 | 24.44° C | 92% | 1012.1 hPa | 0 mm | - | 53 W/m² | - |
| 1777475648 | 25° C | 93% | 1012.1 hPa | 0 mm | - | 57 W/m² | - |
| 1777475344 | 25° C | 93% | 1012.1 hPa | 0 mm | - | 46 W/m² | - |
| 1777475039 | 24.44° C | 93% | 1012.3 hPa | 0 mm | - | 59 W/m² | - |
| 1777474736 | 24.44° C | 93% | 1012 hPa | 0 mm | - | 58 W/m² | - |
| 1777474432 | 25° C | 93% | 1012.1 hPa | 0 mm | - | 50 W/m² | - |
| 1777474128 | 24.44° C | 93% | 1011.9 hPa | 0 mm | - | 54 W/m² | - |
| 1777473827 | 25° C | 93% | 1011.5 hPa | 0 mm | - | 79 W/m² | - |
| 1777473523 | 25° C | 93% | 1011.4 hPa | 0 mm | - | 52 W/m² | - |
| 1777473219 | 25° C | 92% | 1011.7 hPa | 0 mm | - | 49 W/m² | - |
| 1777472916 | 25° C | 92% | 1011.8 hPa | 0 mm | - | 37 W/m² | - |
| 1777472612 | 25° C | 92% | 1011.9 hPa | 0 mm | - | 26 W/m² | - |
| 1777472309 | 25° C | 91% | 1011.9 hPa | 0 mm | - | 20 W/m² | - |
| 1777472006 | 25° C | 91% | 1011.7 hPa | 0 mm | - | 21 W/m² | - |
| 1777471702 | 25° C | 91% | 1011.8 hPa | 0 mm | - | 23 W/m² | - |
| 1777471398 | 25° C | 91% | 1011.5 hPa | 0 mm | - | 30 W/m² | - |
| 1777471095 | 25° C | 91% | 1011.6 hPa | 0 mm | - | 35 W/m² | - |
| 1777470792 | 25° C | 91% | 1011.7 hPa | 0 mm | - | 17 W/m² | - |
| 1777470489 | 24.44° C | 91% | 1011.6 hPa | 0 mm | - | 16 W/m² | - |
* Rain latest hour (hover to see other rain measurements)
** Current wind speed in m/s (hover to see current wind gust speed)